Voltar ao catálogo

SCOUT G-1 DEB

AtivoPO
NORAD 19077·DEBRIS·🇺🇸 United States

Lançado Apr 26, 1988 de Vandenberg Space Force Base

Loading…

Próximas Passagens (próximas 24 horas)

TLE

AtualizadoSource: Space-Track

Época: Sep 14, 2026, 06:14 UTC

1 19077U 88033D   26257.26010803  .00000601  00000-0  85600-3 0  9997
2 19077  90.2869 354.7732 0171881  24.1390   3.5737 13.49571062876291

Acompanhe SCOUT G-1 DEB em tempo real com AllMySat

Download on the App Store